Location: Newark
(34.6283°N, 36.0776°E)
Time: 12:29:20
(UTC+00:00)

Tiros 1 despin weight - Pass Details

Date: 21 September 2019
Orbit: 593 x 643 km, 48.2° (Epoch: 20 October)

Event Time Altitude Azimuth Distance (km) Brightness Sun altitude
Rises 14:23:19 0° 313° (NW) 2,846 ? 13.8°
Reaches altitude 10° 14:25:53 10° 325° (NW) 1,936 ? 13.3°
Maximum altitude 14:29:43 28° 25° (NNE) 1,132 ? 12.5°
Drops below altitude 10° 14:33:30 10° 84° (E) 1,920 ? 11.7°
Sets 14:36:03 0° 97° (E) 2,819 ? 11.2°
